Tracking 35334 objects as of 13-Sep-2026
HD Live streaming from Space Station
objects crossing your sky now

PSLV DEB


PSLV DEB is no longer on orbit


NORAD ID: 52936
Int'l Code: 2022-075B
Launch date: June 30, 2022
Source: India (IND)
Launch site: SRIHARIKOTA (SRI)
Decay date: 2024-05-23

Note: This is SATELLITE DEBRIS
Your satellite tracking list
Your tracking list is empty




NASA's NSSDC Master Catalog

Two Line Element Set (TLE):
1 52936U 22072B   23338.71103390  .00048472  00000-0  17908-2 0  9993
2 52936   9.9877 159.9292 0006213 334.4130  25.5779 15.25703843 78989
Source of the keplerian elements: AFSPC